Regional Weather Roundup
Issued by NWS Sioux Falls, SD

Home | Current Version | Previous Version | Text Only | Print | Product List | Glossary Off
Versions: 1 2 3 4 5 6 7 8 9 10 11 12 13 14 15 16 17 18 19 20 21 22 23 24 25 26 27 28 29 30 31 32 33 34 35 36 37 38 39 40 41 42 43 44 45 46 47 48 49 50

000
ASUS43 KFSD 211002
RWRFSD

WEATHER ROUNDUP FOR SE SOUTH DAKOTA/SW MINNESOTA/NW IOWA
NATIONAL WEATHER SERVICE SIOUX FALLS SD
500 AM CDT TUE OCT 21 2014

NOTE: "FAIR" INDICATES FEW OR NO CLOUDS BELOW 12,000 FEET WITH NO
SIGNIFICANT WEATHER AND OR OBSTRUCTIONS TO VISIBILITY.


SDZ038>040-050-052>070-211100-
SOUTHEAST SOUTH DAKOTA

CITY           SKY/WX    TMP DP  RH WIND       PRES   REMARKS
CHAMBERLAIN    CLEAR     47  37  68 SE9       29.95F
HURON          CLEAR     47  36  65 SE13      30.00F
MADISON        FAIR      41  36  81 SE6       30.07S
MITCHELL       CLEAR     47  37  68 SE9       30.03S
SIOUX FALLS    CLEAR     42  36  79 CALM      30.08R
WINNER         FAIR      60  40  47 S21G30    29.92F
YANKTON        CLEAR     41  36  81 E7        30.07R
$$

MNZ071-072-080-081-089-090-097-098-211100-
SOUTHWEST MINNESOTA

CITY           SKY/WX    TMP DP  RH WIND       PRES   REMARKS
FAIRMONT       CLEAR     36  28  75 CALM      30.11S
JACKSON        CLEAR     39  34  81 CALM      30.11R
LUVERNE        CLEAR     37  34  87 CALM      30.09S
MARSHALL       CLEAR     36  28  75 S3        30.09R
MONTEVIDEO     CLEAR     37  37 100 S7        30.11S
PIPESTONE      CLEAR     43  36  75 SE7       30.07F
REDWOOD FALLS  CLEAR     40  37  89 E6        30.11S
TRACY          CLEAR     42  37  79 S6        30.10S
WINDOM         CLEAR     39  36  87 CALM      30.10S
WORTHINGTON    PTCLDY    34  30  86 CALM      30.11S
$$

IAZ001>003-012>014-020>022-031-032-NEZ013-014-SDZ071-211100-
NORTHWEST IOWA

CITY           SKY/WX    TMP DP  RH WIND       PRES   REMARKS
CHEROKEE       CLEAR     36  36 100 NE3       30.10R
DENISON        CLEAR     37  37 100 CALM      30.08R
ESTHERVILLE    CLEAR     32  30  92 CALM      30.11R
LE MARS        CLEAR     36  34  93 CALM      30.10R
ORANGE CITY    CLEAR     46  37  71 E3        30.09R
SHELDON        CLEAR     36  34  93 E6        30.08S
SIOUX CITY     CLEAR     36  34  92 S3        30.10R
SPENCER        CLEAR     35  31  85 CALM      30.11R
STORM LAKE     CLEAR     43  37  81 E5        30.11R
$$

ABBREVIATIONS USED IN REMARKS
   TC - TEMPERATURE IN CELSIUS
  WCI - WIND CHILL INDEX
   HX - HEAT INDEX
  VSB - VISIBILITY




USA.gov is the U.S. government's official web portal to all federal, state and local government web resources and services.